Location: Newark
(40.7360°N, 74.1730°W)
Time: 23:03:59
(UTC-05:00)

Amateur Radio Satellites - All Passes

Search period start: 21 January 2018 22:33
Search period end: 22 January 2018 22:33
Location: Newark, 40.7360°N, 74.1730°W

Satellite Date Start Highest point End Downlink Frequencies (MHz)
Time Altitude Azimuth
SPROUT 21 Jan 22:36:36 22:39:37 19° 66° (ENE) 22:42:38 437.525
NO-84 21 Jan 22:47:46 22:50:11 24° 34° (NE) 22:52:39 435.350 FM
VELOX 1 21 Jan 22:48:00 22:50:28 15° 63° (ENE) 22:52:55 145.980
QB50P2 21 Jan 22:49:07 22:51:19 14° 91° (E) 22:53:30 145.880/145.840
ESTCUBE 1 21 Jan 22:50:44 22:55:14 69° 258° (WSW) 22:59:45 437.505/2401.250
O/OREOS (USA 219) 21 Jan 23:04:10 23:07:06 17° 100° (E) 23:10:02 437.305
nSIGHT-1 21 Jan 23:11:43 23:12:56 12° 359° (N) 23:14:09 .
DUCHIFAT 1 21 Jan 23:16:25 23:19:25 19° 93° (E) 23:22:24 145.980
EO-79 21 Jan 23:18:29 23:22:06 26° 96° (E) 23:25:41 145.935-145.965
ISS 21 Jan 23:28:52 23:30:19 12° 358° (N) 23:31:47 437.550
TIGRISAT 21 Jan 23:31:38 23:32:19 10° 300° (WNW) 23:33:01 435.000
PRISM 21 Jan 23:37:03 23:40:26 25° 291° (WNW) 23:43:49 437.425
AIST 2D 21 Jan 23:39:28 23:42:41 37° 287° (WNW) 23:45:54 435.315
POLYITAN 1 21 Jan 23:53:17 23:57:33 65° 101° (E) 00:01:48 437.675
YUBILEINY 21 Jan 23:55:42 00:04:03 46° 285° (WNW) 00:12:26 435.215
NANOSAT C BR1 22 Jan 00:07:53 00:12:10 84° 103° (ESE) 00:16:26 145.865
SPROUT 22 Jan 00:11:17 00:15:12 37° 262° (W) 00:19:10 437.525
BUGSAT 1 22 Jan 00:13:41 00:16:37 18° 93° (E) 00:19:32 437.445
Gurwin Techsat 1B 22 Jan 00:20:44 00:21:53 11° 88° (E) 00:23:02 435.225
VELOX 1 22 Jan 00:22:10 00:26:27 53° 259° (W) 00:30:45 145.980
UKube-1 22 Jan 00:22:12 00:25:06 18° 65° (ENE) 00:28:00 .
QB50P2 22 Jan 00:23:12 00:27:22 50° 287° (WNW) 00:31:29 145.880/145.840
Oscar 19 22 Jan 00:24:34 00:27:44 16° 91° (E) 00:30:54 437.125/150
NO-84 22 Jan 00:24:52 00:27:17 24° 229° (SW) 00:29:46 435.350 FM
DX 1 22 Jan 00:35:04 00:39:05 40° 71° (ENE) 00:43:08 434.975-435.025
O/OREOS (USA 219) 22 Jan 00:41:49 00:46:08 44° 297° (WNW) 00:50:26 437.305
nSIGHT-1 22 Jan 00:47:44 00:50:04 18° 19° (NNE) 00:52:24 .
DUCHIFAT 1 22 Jan 00:51:15 00:55:10 36° 289° (WNW) 00:59:04 145.980
MOZHAYETS 4 22 Jan 00:51:42 00:53:08 11° 61° (ENE) 00:54:35
EO-79 22 Jan 00:54:11 00:57:45 26° 291° (WNW) 01:01:19 145.935-145.965
ISS 22 Jan 01:05:20 01:07:46 19° 19° (NNE) 01:10:14 437.550
BEESAT 22 Jan 01:10:20 01:11:33 11° 59° (ENE) 01:12:46 436.000
50 SAT 22 Jan 01:13:52 01:16:56 70° 260° (W) 01:20:00 437.505
AO-91 22 Jan 01:29:46 01:34:19 88° 97° (E) 01:39:21 145.960
POLYITAN 1 22 Jan 01:31:09 01:32:45 12° 298° (WNW) 01:34:22 437.675
BUGSAT 1 22 Jan 01:48:08 01:52:04 38° 289° (WNW) 01:55:59 437.445
UKube-1 22 Jan 01:56:44 02:00:48 41° 261° (W) 02:04:52 .
Gurwin Techsat 1B 22 Jan 01:57:08 02:02:29 88° 290° (WNW) 02:07:48 435.225
Oscar 19 22 Jan 02:02:21 02:07:26 59° 287° (WNW) 02:12:27 437.125/150
ITUPSAT 1 22 Jan 02:05:23 02:09:45 37° 70° (ENE) 02:14:10 437.325
DX 1 22 Jan 02:12:30 02:15:25 18° 266° (W) 02:18:21 434.975-435.025
nSIGHT-1 22 Jan 02:23:23 02:26:34 87° 220° (SW) 02:29:45 .
AO-7 22 Jan 02:24:13 02:31:03 27° 95° (E) 02:37:49 .
MOZHAYETS 4 22 Jan 02:24:58 02:29:36 80° 258° (WSW) 02:34:17
CUBESAT XI-V 22 Jan 02:31:46 02:35:50 30° 69° (ENE) 02:39:55 437.345
FALCONSAT 3 22 Jan 02:37:03 02:38:43 13° 155° (SSE) 02:40:24 435.103
ISS 22 Jan 02:41:20 02:44:37 87° 217° (SW) 02:47:53 437.550
BEESAT 22 Jan 02:43:48 02:48:34 87° 257° (WSW) 02:53:22 436.000
AO-91 22 Jan 03:09:24 03:10:14 10° 297° (WNW) 03:11:05 145.960
ITAMSAT 1 22 Jan 03:11:16 03:15:54 32° 97° (E) 03:20:30 435.822/435.867
Gurwin Techsat 1B 22 Jan 03:39:37 03:41:36 12° 302° (WNW) 03:43:36 435.225
ITUPSAT 1 22 Jan 03:43:55 03:47:39 23° 266° (W) 03:51:26 437.325
KKS-1 22 Jan 03:46:02 03:49:44 27° 68° (ENE) 03:53:27 437.445
STARS 22 Jan 03:59:46 04:02:14 15° 63° (ENE) 04:04:44 437.465
CUBESAT XI-V 22 Jan 04:09:12 04:13:09 27° 265° (W) 04:17:08 437.345
FALCONSAT 3 22 Jan 04:13:57 04:17:11 29° 170° (S) 04:20:26 435.103
AO-7 22 Jan 04:16:03 04:24:19 66° 293° (WNW) 04:32:32 .
DOVE 4 22 Jan 04:22:51 04:27:03 43° 99° (E) 04:31:28 437.250
ITAMSAT 1 22 Jan 04:50:43 04:55:17 32° 293° (WNW) 04:59:50 435.822/435.867
CUTE-I 22 Jan 04:55:30 04:57:26 12° 89° (E) 04:59:22 437.470
XW-2D 22 Jan 04:59:44 05:01:31 13° 92° (E) 05:03:15 145.860 - 145.880
SO-50 22 Jan 05:08:33 05:13:00 82° 301° (WNW) 05:17:33 436.795
M-CUBED/EXP-1 PRIME 22 Jan 05:15:44 05:19:03 72° 290° (WNW) 05:22:16 437.505
XW-2B 22 Jan 05:16:30 05:19:19 20° 94° (E) 05:22:05 145.730 - 145.750
KKS-1 22 Jan 05:22:26 05:26:11 27° 264° (W) 05:29:58 437.445
STARS 22 Jan 05:33:53 05:38:07 52° 260° (W) 05:42:24 437.465
LilacSat-2 22 Jan 05:45:44 05:49:27 52° 100° (E) 05:53:07 437.200
XW-2C 22 Jan 05:46:15 05:49:55 48° 99° (E) 05:53:32 145.795 - 145.815
FALCONSAT 3 22 Jan 05:52:31 05:55:52 34° 185° (S) 05:59:14 435.103
STRAND 1 22 Jan 05:59:51 06:04:33 40° 70° (ENE) 06:09:18 437.568
DOVE 4 22 Jan 06:01:31 06:04:27 18° 293° (WNW) 06:07:30 437.250
AO-7 22 Jan 06:11:07 06:15:31 16° 314° (NW) 06:19:55 .
KAITUO 1B 22 Jan 06:17:05 06:20:48 85° 101° (E) 06:24:28 145.475/437.950
XW-2F 22 Jan 06:21:16 06:24:57 62° 285° (WNW) 06:28:37 145.980 - 146.000
NUDT-PHONESAT 22 Jan 06:25:35 06:29:15 80° 283° (WNW) 06:32:53 437.300
XW-2D 22 Jan 06:32:19 06:35:51 39° 287° (WNW) 06:39:20 145.860 - 145.880
CUTE-I 22 Jan 06:32:44 06:38:05 81° 285° (WNW) 06:43:25 437.470
SEEDS 22 Jan 06:33:52 06:37:26 27° 95° (E) 06:40:58 437.485
HO-68 22 Jan 06:42:02 06:49:05 57° 102° (ESE) 06:56:05 435.675
FO-29 22 Jan 06:45:07 06:51:39 52° 72° (ENE) 06:57:27 435.910
CUTE 1.7 + AOD 2 22 Jan 06:48:42 06:52:55 71° 101° (E) 06:57:05 437.475
XW-2B 22 Jan 06:50:18 06:53:26 26° 290° (WNW) 06:56:34 145.730 - 145.750
SO-50 22 Jan 06:52:07 06:54:13 13° 323° (NW) 06:56:20 436.795
RS-15 22 Jan 07:11:15 07:23:00 54° 111° (ESE) 07:34:38 29.354- 29.394
CUBEBUG 2 22 Jan 07:14:54 07:19:42 87° 106° (ESE) 07:24:25 437.445
UWE-3 22 Jan 07:17:25 07:22:00 52° 99° (E) 07:26:29 435.000/436.395/437.385
LilacSat-2 22 Jan 07:22:07 07:23:14 11° 296° (WNW) 07:24:20 437.200
XW-2C 22 Jan 07:22:16 07:23:38 12° 295° (WNW) 07:25:00 145.795 - 145.815
UNISAT 6 22 Jan 07:31:47 07:33:40 12° 62° (ENE) 07:35:33 437.425
FALCONSAT 3 22 Jan 07:31:48 07:34:28 19° 200° (SSW) 07:37:08 435.103
ZACube-1 22 Jan 07:38:01 07:42:24 44° 98° (E) 07:46:38 437.345
STRAND 1 22 Jan 07:39:48 07:43:50 24° 266° (W) 07:47:56 437.568
AO-73 22 Jan 07:43:54 07:48:15 44° 98° (E) 07:52:29 145.935
AAUSAT CUBESAT 2 22 Jan 07:46:08 07:50:16 79° 102° (ESE) 07:54:21 437.432
XW-2A 22 Jan 07:57:25 08:00:47 83° 284° (WNW) 08:04:06 145.665 - 145.685
SEEDS 22 Jan 08:09:39 08:12:59 24° 291° (WNW) 08:16:19 437.485
YUBILEINY 22 Jan 08:10:36 08:16:15 18° 62° (ENE) 08:21:53 435.215
Oscar 11 22 Jan 08:15:29 08:19:46 60° 100° (E) 08:24:01 .
CUTE-I 22 Jan 08:15:46 08:17:15 11° 303° (WNW) 08:18:43 437.470
CUTE 1.7 + AOD 2 22 Jan 08:27:20 08:28:07 10° 298° (WNW) 08:28:55 437.475
HO-68 22 Jan 08:30:28 08:36:23 29° 299° (WNW) 08:42:18 435.675
FO-29 22 Jan 08:31:21 08:36:51 26° 265° (W) 08:41:55 435.910
BEESAT 3 22 Jan 08:40:00 08:43:43 40° 116° (ESE) 08:47:28 437.485
TIGRISAT 22 Jan 08:49:35 08:53:59 74° 76° (ENE) 08:58:33 435.000
PRISM 22 Jan 08:51:17 08:54:00 18° 66° (ENE) 08:56:43 437.425
CUBEBUG 2 22 Jan 08:54:21 08:55:32 11° 299° (WNW) 08:56:44 437.445
UWE-3 22 Jan 08:55:02 08:58:00 17° 296° (WNW) 09:00:55 435.000/436.395/437.385
PCSat 22 Jan 09:00:28 09:05:40 52° 114° (ESE) 09:10:56 145.827
UNISAT 6 22 Jan 09:05:20 09:09:44 68° 259° (WSW) 09:14:16 437.425
O/OREOS (USA 219) 22 Jan 09:12:51 09:16:53 32° 61° (ENE) 09:20:54 437.305
ZACube-1 22 Jan 09:15:10 09:18:17 18° 295° (WNW) 09:21:22 437.345
AO-73 22 Jan 09:21:01 09:24:06 18° 295° (WNW) 09:27:07 145.935
RS-15 22 Jan 09:23:45 09:35:39 52° 314° (NW) 09:47:24 29.354- 29.394
BEESAT 2 22 Jan 09:31:41 09:35:22 37° 116° (ESE) 09:39:07 435.950
QB50P2 22 Jan 09:42:52 09:43:51 11° 62° (ENE) 09:44:49 145.880/145.840
DELFI C3 22 Jan 09:43:42 09:47:37 71° 284° (WNW) 09:51:31 145.870
Oscar 11 22 Jan 09:53:27 09:55:23 13° 297° (WNW) 09:57:17 .
Max Valier Satellite 22 Jan 10:03:57 10:07:36 57° 285° (WNW) 10:11:11 145.860
YUBILEINY 22 Jan 10:05:35 10:14:22 88° 81° (E) 10:23:04 435.215
DUCHIFAT 1 22 Jan 10:08:38 10:10:50 14° 64° (ENE) 10:13:01 145.980
EO-79 22 Jan 10:10:53 10:13:55 20° 66° (ENE) 10:16:58 145.935-145.965
AIST 2D 22 Jan 10:12:24 10:15:53 63° 75° (ENE) 10:19:22 435.315
AO-85 22 Jan 10:16:35 10:18:29 13° 108° (ESE) 10:20:25 145.980
BEESAT 3 22 Jan 10:18:22 10:21:23 20° 314° (NW) 10:24:25 437.485
EO-88 22 Jan 10:19:00 10:22:35 57° 285° (WNW) 10:26:07 145.990 - 145.960
PRISM 22 Jan 10:25:13 10:28:58 36° 262° (W) 10:32:45 437.425
ESTCUBE 1 22 Jan 10:43:50 10:47:31 25° 95° (E) 10:51:12 437.505/2401.250
PCSat 22 Jan 10:44:57 10:49:21 25° 312° (NW) 10:53:48 145.827
POLYITAN 1 22 Jan 10:45:07 10:49:09 45° 72° (ENE) 10:53:14 437.675
O/OREOS (USA 219) 22 Jan 10:52:32 10:56:06 23° 258° (WSW) 10:59:39 437.305
NANOSAT C BR1 22 Jan 10:59:06 11:03:13 57° 74° (ENE) 11:07:23 145.865
BUGSAT 1 22 Jan 11:04:13 11:05:58 12° 63° (ENE) 11:07:43 437.445
BEESAT 2 22 Jan 11:10:01 11:13:11 22° 313° (NW) 11:16:23 435.950
QB50P2 22 Jan 11:14:47 11:18:59 72° 257° (WSW) 11:23:16 145.880/145.840
LO-87 22 Jan 11:33:08 11:36:43 58° 285° (WNW) 11:40:16 145.935 - 145.965
Gurwin Techsat 1B 22 Jan 11:40:10 11:43:49 19° 62° (ENE) 11:47:28 435.225
Oscar 19 22 Jan 11:40:45 11:44:53 25° 65° (ENE) 11:49:03 437.125/150
DUCHIFAT 1 22 Jan 11:41:55 11:46:00 52° 260° (W) 11:50:09 145.980
RS-15 22 Jan 11:42:49 11:52:00 23° 345° (NNW) 12:00:58 29.354- 29.394
EO-79 22 Jan 11:45:32 11:49:24 35° 262° (W) 11:53:20 145.935-145.965
AO-85 22 Jan 11:54:25 11:58:18 52° 306° (NW) 12:02:28 145.980
SPROUT 22 Jan 11:56:40 12:00:39 35° 98° (E) 12:04:35 437.525
SO-50 22 Jan 12:00:55 12:03:19 14° 38° (NE) 12:05:44 436.795
YUBILEINY 22 Jan 12:04:39 12:09:53 18° 283° (WNW) 12:15:07 435.215
VELOX 1 22 Jan 12:12:25 12:16:13 28° 96° (E) 12:19:59 145.980
ESTCUBE 1 22 Jan 12:20:23 12:24:17 30° 291° (WNW) 12:28:11 437.505/2401.250
POLYITAN 1 22 Jan 12:22:42 12:25:09 15° 268° (W) 12:27:36 437.675
AO-91 22 Jan 12:27:39 12:30:59 62° 75° (ENE) 12:34:27 145.960
BUGSAT 1 22 Jan 12:36:47 12:40:47 56° 260° (W) 12:44:53 437.445
NANOSAT C BR1 22 Jan 12:37:48 12:39:16 12° 270° (W) 12:40:45 145.865
Gurwin Techsat 1B 22 Jan 13:18:04 13:23:17 57° 259° (W) 13:28:32 435.225
Oscar 19 22 Jan 13:19:03 13:23:56 41° 262° (W) 13:28:52 437.125/150
AO-7 22 Jan 13:22:44 13:30:14 39° 60° (ENE) 13:37:46 .
SPROUT 22 Jan 13:33:06 13:36:16 20° 293° (WNW) 13:39:25 437.525
SO-50 22 Jan 13:39:47 13:44:31 81° 57° (ENE) 13:49:18 436.795
UKube-1 22 Jan 13:43:45 13:47:35 30° 97° (E) 13:51:24 .
VELOX 1 22 Jan 13:48:53 13:52:33 26° 292° (WNW) 13:56:12 145.980
DX 1 22 Jan 13:58:57 14:03:18 79° 103° (ESE) 14:07:39 434.975-435.025
50 SAT 22 Jan 13:59:46 14:02:54 87° 110° (ESE) 14:05:59 437.505
RS-15 22 Jan 14:00:42 14:10:12 26° 21° (NNE) 14:19:19 29.354- 29.394
MOZHAYETS 4 22 Jan 14:20:45 14:24:31 24° 94° (E) 14:28:14
M-CUBED/EXP-1 PRIME 22 Jan 14:28:27 14:30:14 13° 60° (ENE) 14:31:59 437.505
ITAMSAT 1 22 Jan 14:28:49 14:33:45 48° 70° (ENE) 14:38:43 435.822/435.867
BEESAT 22 Jan 14:44:40 14:48:31 24° 95° (E) 14:52:21 436.000
AO-7 22 Jan 15:14:44 15:22:45 50° 258° (WSW) 15:30:51 .
UKube-1 22 Jan 15:20:01 15:23:26 23° 293° (WNW) 15:26:50 .
SO-50 22 Jan 15:22:46 15:24:20 11° 253° (WSW) 15:25:53 436.795
DOVE 4 22 Jan 15:28:20 15:32:18 40° 73° (ENE) 15:36:11 437.250
DX 1 22 Jan 15:38:11 15:38:49 10° 299° (WNW) 15:39:28 434.975-435.025
NO-84 22 Jan 15:38:32 15:41:23 29° 132° (SE) 15:44:04 435.350 FM
ITUPSAT 1 22 Jan 15:43:10 15:48:01 89° 284° (WNW) 15:52:49 437.325
MOZHAYETS 4 22 Jan 15:57:32 16:01:40 33° 291° (WNW) 16:05:46
XW-2B 22 Jan 15:59:26 16:00:09 10° 64° (ENE) 16:00:52 145.730 - 145.750
M-CUBED/EXP-1 PRIME 22 Jan 15:59:54 16:04:12 64° 253° (WSW) 16:08:14 437.505
CUBESAT XI-V 22 Jan 16:04:56 16:09:33 76° 102° (ESE) 16:14:08 437.345
ITAMSAT 1 22 Jan 16:09:40 16:13:26 20° 267° (W) 16:17:13 435.822/435.867
RS-15 22 Jan 16:13:55 16:25:38 64° 51° (NE) 16:36:41 29.354- 29.394
CUTE-I 22 Jan 16:16:07 16:20:00 21° 63° (ENE) 16:23:54 437.470
BEESAT 22 Jan 16:21:58 16:26:20 36° 291° (WNW) 16:30:41 436.000
XW-2C 22 Jan 16:27:19 16:30:21 23° 69° (ENE) 16:33:24 145.795 - 145.815
LilacSat-2 22 Jan 16:27:20 16:30:32 25° 70° (ENE) 16:33:42 437.200
KAITUO 1B 22 Jan 16:56:17 16:59:43 34° 72° (ENE) 17:03:09 145.475/437.950
BEESAT 3 22 Jan 16:56:53 17:00:03 23° 47° (NE) 17:03:10 437.485
XW-2F 22 Jan 17:01:01 17:04:44 54° 75° (ENE) 17:08:26 145.980 - 146.000
NUDT-PHONESAT 22 Jan 17:03:40 17:07:10 40° 73° (ENE) 17:10:41 437.300
DOVE 4 22 Jan 17:07:33 17:10:10 16° 267° (W) 17:12:45 437.250
HO-68 22 Jan 17:10:22 17:16:55 41° 65° (ENE) 17:23:30 435.675
XW-2D 22 Jan 17:12:16 17:16:05 87° 77° (ENE) 17:19:56 145.860 - 145.880
KKS-1 22 Jan 17:12:34 17:16:57 54° 101° (E) 17:21:19 437.445
NO-84 22 Jan 17:16:00 17:18:32 23° 327° (NNW) 17:20:58 435.350 FM
STARS 22 Jan 17:23:29 17:27:16 27° 96° (E) 17:31:02 437.465
ITUPSAT 1 22 Jan 17:24:05 17:25:03 11° 301° (WNW) 17:26:01 437.325
SEEDS 22 Jan 17:25:33 17:28:32 19° 67° (ENE) 17:31:31 437.485
XW-2B 22 Jan 17:30:02 17:33:48 58° 259° (W) 17:37:35 145.730 - 145.750
CUTE 1.7 + AOD 2 22 Jan 17:40:36 17:44:41 46° 73° (ENE) 17:48:46 437.475
CUBESAT XI-V 22 Jan 17:44:41 17:46:16 12° 299° (WNW) 17:47:50 437.345
PCSat 22 Jan 17:48:31 17:53:38 40° 54° (NE) 17:58:43 145.827
BEESAT 2 22 Jan 17:49:28 17:52:40 22° 47° (NE) 17:55:50 435.950
CUTE-I 22 Jan 17:54:30 17:59:39 51° 260° (W) 18:04:50 437.470
XW-2C 22 Jan 18:01:17 18:04:25 24° 265° (W) 18:07:33 145.795 - 145.815
LilacSat-2 22 Jan 18:01:41 18:04:43 22° 265° (W) 18:07:46 437.200
STRAND 1 22 Jan 18:12:03 18:14:35 14° 90° (E) 18:17:07 437.568
CUBEBUG 2 22 Jan 18:12:11 18:16:32 67° 75° (ENE) 18:21:04 437.445
UWE-3 22 Jan 18:13:43 18:17:50 39° 71° (ENE) 18:22:05 435.000/436.395/437.385
RS-15 22 Jan 18:27:13 18:37:19 37° 254° (WSW) 18:47:01 29.354- 29.394
XW-2A 22 Jan 18:27:54 18:30:51 27° 71° (ENE) 18:33:48 145.665 - 145.685
KAITUO 1B 22 Jan 18:31:34 18:33:47 15° 267° (W) 18:35:59 145.475/437.950
ZACube-1 22 Jan 18:33:09 18:37:08 33° 70° (ENE) 18:41:12 437.345
BEESAT 3 22 Jan 18:34:07 18:37:36 32° 245° (WSW) 18:41:03 437.485
AAUSAT CUBESAT 2 22 Jan 18:35:26 18:39:23 46° 73° (ENE) 18:43:21 437.432
AO-73 22 Jan 18:38:40 18:42:40 33° 70° (ENE) 18:46:44 145.935
NUDT-PHONESAT 22 Jan 18:39:24 18:41:09 13° 268° (W) 18:42:54 437.300
AO-85 22 Jan 18:45:19 18:48:48 19° 43° (NE) 18:52:26 145.980
KKS-1 22 Jan 18:50:31 18:53:03 15° 297° (WNW) 18:55:34 437.445
HO-68 22 Jan 18:58:02 19:04:36 39° 262° (W) 19:11:13 435.675
STARS 22 Jan 18:59:47 19:03:31 27° 292° (WNW) 19:07:13 437.465
nSIGHT-1 22 Jan 18:59:56 19:02:42 28° 135° (SE) 19:05:29 .
SEEDS 22 Jan 19:00:04 19:03:56 36° 263° (W) 19:07:50 437.485
Oscar 11 22 Jan 19:09:37 19:13:44 43° 72° (ENE) 19:17:52 .
CUTE 1.7 + AOD 2 22 Jan 19:18:20 19:20:44 15° 269° (W) 19:23:08 437.475
ISS 22 Jan 19:21:04 19:24:00 32° 136° (SE) 19:26:56 437.550
BEESAT 2 22 Jan 19:26:48 19:30:28 34° 244° (WSW) 19:34:03 435.950
PCSat 22 Jan 19:32:14 19:36:51 29° 251° (WSW) 19:41:27 145.827
FO-29 22 Jan 19:39:31 19:44:22 39° 98° (E) 19:49:20 435.910
STRAND 1 22 Jan 19:49:06 19:54:14 70° 286° (WNW) 19:59:21 437.568
UWE-3 22 Jan 19:51:12 19:54:25 19° 268° (W) 19:57:44 435.000/436.395/437.385
CUBEBUG 2 22 Jan 19:52:28 19:53:38 11° 272° (W) 19:54:50 437.445
XW-2A 22 Jan 20:01:28 20:03:33 15° 267° (W) 20:05:39 145.665 - 145.685
ZACube-1 22 Jan 20:09:52 20:13:25 23° 266° (W) 20:17:03 437.345
AAUSAT CUBESAT 2 22 Jan 20:12:59 20:15:04 14° 269° (W) 20:17:09 437.432
AO-73 22 Jan 20:15:21 20:18:54 23° 266° (W) 20:22:32 145.935
AO-85 22 Jan 20:24:43 20:29:43 74° 240° (WSW) 20:35:00 145.980
DELFI C3 22 Jan 20:28:00 20:31:50 58° 75° (ENE) 20:35:41 145.870
nSIGHT-1 22 Jan 20:35:56 20:38:49 32° 332° (NNW) 20:41:43 .
Max Valier Satellite 22 Jan 20:41:42 20:45:20 54° 75° (ENE) 20:49:00 145.860
TIGRISAT 22 Jan 20:42:18 20:45:21 17° 92° (E) 20:48:23 435.000
Oscar 11 22 Jan 20:47:19 20:50:03 16° 268° (W) 20:52:48 .
EO-88 22 Jan 20:55:35 20:59:08 51° 74° (ENE) 21:02:42 145.990 - 145.960
UNISAT 6 22 Jan 20:57:26 21:01:25 27° 95° (E) 21:05:22 437.425
ISS 22 Jan 20:57:29 21:00:27 31° 333° (NNW) 21:03:26 437.550
YUBILEINY 22 Jan 21:12:35 21:18:34 21° 79° (E) 21:24:32 435.215
FO-29 22 Jan 21:25:14 21:29:18 24° 295° (WNW) 21:33:25 435.910
ESTCUBE 1 22 Jan 21:43:07 21:46:39 23° 67° (ENE) 21:50:13 437.505/2401.250
PRISM 22 Jan 22:06:25 22:09:56 27° 97° (E) 22:13:25 437.425
LO-87 22 Jan 22:08:10 22:11:35 47° 74° (ENE) 22:15:03 145.935 - 145.965
NO-84 22 Jan 22:11:15 22:13:22 19° 31° (NNE) 22:15:30 435.350 FM
nSIGHT-1 22 Jan 22:14:13 22:15:44 13° 352° (N) 22:17:14 .
TIGRISAT 22 Jan 22:17:44 22:22:16 48° 287° (WNW) 22:26:46 435.000
